Terug naar catalogus

STARLINK-36054

ActiefCommunicatieVLEO
NORAD 66812·PAYLOAD·🇺🇸 United States

Gelanceerd Dec 1, 2025 vanaf Cape Canaveral Space Force Station

Loading…

Volgende Passages (komende 24 uur)

TLE

VersSource: CelesTrak SupGP

Epoch: Sep 15, 2026, 03:28 UTC

1 66812C 25278X   26258.14493056  .00046504  00000+0  16841-2 0  2580
2 66812  43.0016 124.4464 0001419 273.9066  82.9721 15.27561551    10

Volg STARLINK-36054 in realtime met AllMySat

Download on the App Store